Location: Allison Elementary School
(34.0784°N, 117.7317°W)
Time: 13:38:19
(UTC+00:00)

Cosmos 1072 Rocket - Visible Passes

Search period start: 18 February 2020 00:00
Search period end: 28 February 2020 00:00
Orbit: 949 x 1008 km, 82.9° (Epoch: 17 February)

Date Brightness Start Highest point End Pass type
(mag) Time Alt. Az. Time Alt. Az. Time Alt. Az.
18 Feb 5.2 02:53:28 10° SE 02:58:50 29° E 03:04:11 10° NNE visible
18 Feb 5.8 04:38:16 10° SW 04:44:03 36° WNW 04:49:52 10° NNW visible
18 Feb 7.1 13:54:23 10° NNE 13:58:46 20° ENE 14:03:05 10° ESE visible
19 Feb 4.5 03:18:42 10° SSE 03:24:56 56° E 03:31:08 10° NNE visible
19 Feb 6.8 05:06:23 10° WSW 05:10:42 19° WNW 05:15:01 10° NNW visible
20 Feb 6.0 02:04:01 10° ESE 02:06:35 13° E 02:09:09 10° ENE visible
20 Feb 4.6 03:44:47 10° S 03:51:12 77° W 03:57:34 10° N visible
21 Feb 5.4 02:27:23 10° SE 02:32:29 26° E 02:37:34 10° NNE visible
21 Feb 5.7 04:11:41 10° SSW 04:17:37 40° W 04:23:33 10° N visible
21 Feb 7.2 13:28:17 10° NNE 13:32:15 18° ENE 13:36:11 10° ESE visible
22 Feb 4.7 02:52:26 10° SSE 02:58:33 50° E 03:04:38 10° NNE visible
22 Feb 6.7 04:39:34 10° WSW 04:44:13 21° WNW 04:48:53 10° NNW visible
22 Feb 6.3 13:53:22 10° NNE 13:58:54 34° ENE 14:04:22 10° SE visible
23 Feb 4.5 03:18:22 10° S 03:24:47 86° W 03:31:09 10° N visible
24 Feb 5.5 02:01:19 10° SE 02:06:08 23° E 02:10:55 10° NE visible
24 Feb 5.6 03:45:07 10° SSW 03:51:10 45° W 03:57:12 10° N visible
24 Feb 7.3 13:02:14 10° NE 13:05:44 15° ENE 13:09:12 10° ESE visible
25 Feb 4.8 02:26:11 10° SSE 02:32:10 45° E 02:38:07 10° NNE visible
25 Feb 6.7 04:12:48 10° SW 04:17:45 23° WNW 04:22:41 10° NNW visible
25 Feb 6.5 13:27:05 10° NNE 13:32:25 30° ENE 13:37:42 10° SE visible
26 Feb 4.5 02:51:59 10° S 02:58:23 86° E 03:04:43 10° N visible
26 Feb 7.5 04:42:32 10° W 04:44:32 11° WNW 04:46:31 10° NW visible
26 Feb 5.2 13:52:50 10° N 13:58:54 60° E 14:04:54 10° SSE visible
27 Feb 5.4 03:18:35 10° SSW 03:24:44 50° W 03:30:51 10° N visible
27 Feb 7.4 12:36:18 10° NE 12:39:12 13° ENE 12:42:05 10° E visible
